Date String (YYYY-MM-DD hh:mm:ss) UTC,Instrument flags,absolute air pressure of the measurement (hPa),sample flow rate (lpm),inlet stack bypass flow (lpm),air temperature of the measurement (°C),ambient temperature measured by the external sensor (°C),aerosol sample conditioner tube jacket temperature (°C),OPC LED temperature (°C),internal box temperature (°C),relative humidity of the measurement (%),span deviation,mass concentration of particles derived from Lorenz-Mie calculation of OPC scattering (μg/m³),mass concentration of particles derived from Lorenz-Mie calculation of OPC scattering (μg/m³),mass concentration of particles derived from Lorenz-Mie calculation of OPC scattering (μg/m³)
DateTimeUTC,F1_M11,P_M11,Q1_M11,Q2_M11,T1_M11,T2_M11,T3_M11,T4_M11,T5_M11,U1_M11,ZSPAN_M11,X0_M11,X2_M11,X1_M11
2024-01-08 17:00:00,SystemResetWarning,0823.8,5.00,000.00,018.8,018.1,000.0,027.1,020.0,11.1,0000.0,0004.88,0002.37,0001.85
2024-01-08 17:01:00,SystemResetWarning,0823.9,5.00,000.00,018.8,018.1,000.0,027.1,020.0,11.1,0000.0,0004.85,0002.36,0001.84
2024-01-08 17:02:00,SystemResetWarning,0823.8,5.00,000.00,018.8,018.1,000.0,027.1,020.0,11.2,0000.0,0004.74,0002.33,0001.83
2024-01-08 17:03:00,SystemResetWarning,0823.9,5.00,000.00,018.8,018.1,000.0,027.1,020.0,11.3,0000.0,0004.76,0002.32,0001.83
2024-01-08 17:04:00,SystemResetWarning,0823.8,5.00,000.00,018.8,018.1,000.0,027.1,020.0,11.2,0000.0,0004.91,0002.37,0001.82
2024-01-08 17:05:00,SystemResetWarning,0823.8,5.00,000.00,018.8,018.1,000.0,027.1,020.0,11.3,0000.0,0004.35,0002.38,0001.82
2024-01-08 17:06:00,SystemResetWarning,0823.9,5.00,000.00,018.8,018.1,000.0,027.1,020.0,11.3,0000.0,0004.25,0002.37,0001.82
2024-01-08 17:07:00,SystemResetWarning,0823.9,5.00,000.00,018.8,018.1,000.0,027.1,020.0,11.3,0000.0,0004.12,0002.35,0001.82
2024-01-08 17:08:00,SystemResetWarning,0823.9,5.00,000.00,018.8,018.1,000.0,027.1,020.0,11.3,0000.0,0004.22,0002.38,0001.83
2024-01-08 17:09:00,SystemResetWarning,0823.9,5.00,000.00,018.8,018.1,000.0,027.1,020.0,11.3,0000.0,0004.10,0002.32,0001.82
2024-01-08 17:10:00,SystemResetWarning,0823.9,5.00,000.00,018.8,018.1,000.0,027.1,020.0,11.4,0000.0,0004.04,0002.32,0001.83
2024-01-08 17:11:00,SystemResetWarning,0823.8,5.00,000.00,018.8,018.1,000.0,027.1,020.0,11.3,0000.0,0003.80,0002.30,0001.83
2024-01-08 17:12:00,SystemResetWarning,0823.8,5.00,000.00,018.8,018.1,000.0,027.1,020.0,11.3,0000.0,0004.01,0002.29,0001.83
2024-01-08 17:13:00,SystemResetWarning,0823.8,5.00,000.00,018.8,018.1,000.0,027.1,020.0,11.3,0000.0,0004.13,0002.33,0001.84
2024-01-08 17:14:00,SystemResetWarning,0823.8,5.00,000.00,018.8,018.1,000.0,027.1,020.0,11.3,0000.0,0004.43,0002.38,0001.85
2024-01-08 17:15:00,SystemResetWarning,0823.8,5.00,000.00,018.8,018.2,000.0,027.1,020.1,11.3,0000.0,0004.14,0002.32,0001.85
2024-01-08 17:16:00,SystemResetWarning,0823.8,4.99,000.00,018.8,018.2,000.0,027.1,020.1,11.3,0000.0,0004.17,0002.31,0001.86
2024-01-08 17:17:00,SystemResetWarning,0823.8,5.00,000.00,018.8,018.2,000.0,027.1,020.1,11.3,0000.0,0004.03,0002.29,0001.87
2024-01-08 17:18:00,SystemResetWarning,0823.8,5.00,000.00,018.8,018.2,000.0,027.1,020.0,11.4,0000.0,0004.04,0002.32,0001.87
2024-01-08 17:19:00,SystemResetWarning,0823.8,5.00,000.00,018.8,018.2,000.0,027.1,020.1,11.4,0000.0,0004.04,0002.31,0001.88
2024-01-08 17:20:00,SystemResetWarning,0823.8,5.00,000.00,018.8,018.2,000.0,027.1,020.1,11.4,0000.0,0004.34,0002.36,0001.90
2024-01-08 17:21:00,SystemResetWarning,0823.8,5.00,000.00,018.8,018.2,000.0,027.1,020.1,11.4,0000.0,0004.26,0002.33,0001.89
2024-01-08 17:22:00,SystemResetWarning,0823.8,5.00,000.00,018.8,018.2,000.0,027.1,020.1,11.4,0000.0,0004.27,0002.35,0001.91
2024-01-08 17:23:00,SystemResetWarning,0823.8,4.99,000.00,018.8,018.2,000.0,027.1,020.1,11.4,0000.0,0004.11,0002.36,0001.92
2024-01-08 17:24:00,SystemResetWarning,0823.8,5.00,000.00,018.8,018.2,000.0,027.1,020.0,11.4,0000.0,0004.07,0002.33,0001.93
2024-01-08 17:25:00,SystemResetWarning,0823.8,5.00,000.00,018.8,018.2,000.0,027.1,020.0,11.4,0000.0,0004.45,0002.32,0001.93
2024-01-08 17:26:00,SystemResetWarning,0823.8,5.00,000.00,018.8,018.2,000.0,027.1,020.1,11.4,0000.0,0004.40,0002.32,0001.96
2024-01-08 17:27:00,SystemResetWarning,0823.8,5.00,000.00,018.8,018.2,000.0,027.1,020.1,11.5,0000.0,0004.35,0002.36,0001.99
2024-01-08 17:28:00,SystemResetWarning,0823.9,5.00,000.00,018.8,018.2,000.0,027.1,020.1,11.5,0000.0,0004.82,0002.42,0002.01
2024-01-08 17:29:00,SystemResetWarning,0823.9,5.00,000.00,018.8,018.3,000.0,027.1,020.1,11.5,0000.0,0004.95,0002.47,0002.04
2024-01-08 17:30:00,SystemResetWarning,0823.8,5.00,000.00,018.8,018.3,000.0,027.2,020.1,11.6,0000.0,0005.01,0002.52,0002.07
2024-01-08 17:31:00,SystemResetWarning,0823.9,5.00,000.00,018.9,018.3,000.0,027.2,020.2,11.8,0000.0,0004.74,0002.54,0002.11
2024-01-08 17:32:00,SystemResetWarning,0823.9,5.00,000.00,018.9,018.3,000.0,027.2,020.2,11.8,0000.0,0004.82,0002.60,0002.15
2024-01-08 17:33:00,SystemResetWarning,0823.8,5.00,000.00,018.9,018.3,000.0,027.2,020.2,11.8,0000.0,0005.04,0002.69,0002.19
2024-01-08 17:34:00,SystemResetWarning,0823.8,5.00,000.00,018.9,018.3,000.0,027.2,020.1,11.7,0000.0,0006.32,0002.77,0002.22
2024-01-08 17:35:00,SystemResetWarning,0823.8,5.00,000.00,018.9,018.3,000.0,027.2,020.1,11.8,0000.0,0007.09,0002.80,0002.25
2024-01-08 17:36:00,SystemResetWarning,0823.8,5.00,000.00,018.9,018.3,000.0,027.2,020.2,11.8,0000.0,0006.41,0002.84,0002.28
2024-01-08 17:37:00,SystemResetWarning,0823.8,5.00,000.00,018.9,018.3,000.0,027.2,020.2,11.8,0000.0,0007.26,0002.89,0002.30
2024-01-08 17:38:00,SystemResetWarning,0823.8,5.00,000.00,018.9,018.3,000.0,027.2,020.2,11.7,0000.0,0008.39,0002.94,0002.33
2024-01-08 17:39:00,SystemResetWarning,0823.8,5.00,000.00,018.9,018.3,000.0,027.2,020.2,11.8,0000.0,0008.45,0002.96,0002.35
2024-01-08 17:40:00,SystemResetWarning,0823.8,5.00,000.00,018.9,018.3,000.0,027.2,020.2,11.8,0000.0,0008.46,0002.97,0002.37
2024-01-08 17:41:00,SystemResetWarning,0823.8,5.00,000.00,018.9,018.3,000.0,027.2,020.2,11.8,0000.0,0008.49,0002.97,0002.38
2024-01-08 17:42:00,SystemResetWarning,0823.8,4.99,000.00,018.9,018.4,000.0,027.2,020.2,11.9,0000.0,0008.57,0003.00,0002.39
2024-01-08 17:43:00,SystemResetWarning,0823.7,4.99,000.00,018.9,018.4,000.0,027.2,020.2,11.9,0000.0,0008.66,0003.02,0002.40
2024-01-08 17:44:00,SystemResetWarning,0823.8,5.01,000.00,018.9,018.4,000.0,027.2,020.2,11.9,0000.0,0008.82,0003.08,0002.41
2024-01-08 17:45:00,SystemResetWarning,0823.7,5.01,000.00,018.9,018.4,000.0,027.2,020.3,11.8,0000.0,0008.31,0003.07,0002.43
2024-01-08 17:46:00,SystemResetWarning,0823.7,5.00,000.00,018.9,018.4,000.0,027.2,020.3,11.8,0000.0,0007.92,0003.10,0002.46
2024-01-08 17:47:00,SystemResetWarning,0823.7,4.99,000.00,019.0,018.4,000.0,027.2,020.3,11.8,0000.0,0008.37,0003.11,0002.48
2024-01-08 17:48:00,SystemResetWarning,0823.7,4.99,000.00,019.0,018.4,000.0,027.2,020.3,11.8,0000.0,0007.93,0003.12,0002.50
2024-01-08 17:49:00,SystemResetWarning,0823.7,5.01,000.00,019.0,018.4,000.0,027.3,020.4,11.8,0000.0,0006.50,0003.11,0002.50
2024-01-08 17:50:00,SystemResetWarning,0823.7,5.01,000.00,019.0,018.4,000.0,027.3,020.4,11.8,0000.0,0006.24,0003.11,0002.51
2024-01-08 17:51:00,SystemResetWarning,0823.7,5.00,000.00,019.0,018.4,000.0,027.3,020.4,11.8,0000.0,0007.06,0003.13,0002.55
2024-01-08 17:52:00,SystemResetWarning,0823.7,4.99,000.00,019.0,018.5,000.0,027.3,020.4,11.7,0000.0,0006.98,0003.13,0002.55
2024-01-08 17:53:00,SystemResetWarning,0823.7,4.99,000.00,019.1,018.5,000.0,027.3,020.5,11.7,0000.0,0006.82,0003.11,0002.56
2024-01-08 17:54:00,SystemResetWarning,0823.6,5.00,000.00,019.1,018.5,000.0,027.3,020.5,11.6,0000.0,0006.68,0003.11,0002.59
2024-01-08 17:55:00,SystemResetWarning,0823.6,5.01,000.00,019.1,018.5,000.0,027.3,020.5,11.7,0000.0,0006.50,0003.10,0002.60
2024-01-08 17:56:00,SystemResetWarning,0823.6,5.01,000.00,019.1,018.5,000.0,027.3,020.5,11.7,0000.0,0006.41,0003.09,0002.60
2024-01-08 17:57:00,SystemResetWarning,0823.6,5.00,000.00,019.1,018.5,000.0,027.3,020.5,11.6,0000.0,0006.36,0003.10,0002.61
2024-01-08 17:58:00,SystemResetWarning,0823.6,4.99,000.00,019.1,018.6,000.0,027.3,020.5,11.5,0000.0,0005.90,0003.10,0002.63
2024-01-08 17:59:00,SystemResetWarning,0823.6,4.99,000.00,019.1,018.6,000.0,027.4,020.6,11.6,0000.0,0006.11,0003.11,0002.63
